Flag for Germany Weather past 2 weeks in Sondershausen, Thuringia, Germany

Now
68 °F

Scattered clouds.


Feels Like: 68 °F
Forecast: 37 / 47 °F
Wind: 9 mph from Northwest

Location: Erfurt-Bindersleben

Current Time: Apr 21, 2015 at 5:15:19 PM

Latest Report: Apr 21, 2015 at 5:00 PM


Visibility: 47 mi

Pressure: 30.29 "Hg

Humidity: 27%

Dew point: 33 °F

Location of SondershausenLocation

Historic Weather in Sondershausen — Graph

°F

Sondershausen temperature yesterday

Maximum temperature yesterday: 63 °F (at 5:00 PM)
Minimum temperature yesterday: 32 °F (at 6:00 AM)
Average temperature yesterday: 49 °F

Past Weeks' High & Low Weather Summary

 TemperatureHumidityPressure
High72 °F (Apr 15, 4:00 PM)95% (Apr 10, 6:00 AM)30.64 "Hg (Apr 10, 6:00 AM)
Low25 °F (Apr 7, 7:00 AM)29% (Apr 15, 4:00 PM)29.90 "Hg (Apr 15, 8:00 PM)
Average49 °F62%30.27 "Hg
* Reported Apr 6 4:00 PM — Apr 21 4:00 PM, Sondershausen, Weather by CustomWeather, © 2015

Note: Actual official high and low records may vary slightly from our data, if they occured in-between our weather recording intervals... More about our weather records

Advertising

Sondershausen weather history for previous 24 hours

 ConditionsComfort  
Time TempWeatherWind HumidityBarometerVisibility
4:00 PM
Tue, Apr 21
68 °FScattered clouds.8 mph29%30.30 "Hg47 mi
3:00 PM67 °FScattered clouds.8 mph32%30.32 "Hg47 mi
2:00 PM66 °FScattered clouds.7 mph29%30.33 "Hg47 mi
1:00 PM64 °FPartly sunny.6 mph31%30.35 "Hg47 mi
12:00 PM61 °FPartly sunny.5 mph38%30.37 "Hg47 mi
11:00 AM57 °FScattered clouds.5 mph47%30.38 "Hg47 mi
10:00 AM53 °FScattered clouds.5 mph57%30.39 "Hg47 mi
9:00 AM48 °FScattered clouds.3 mph71%30.40 "Hg47 mi
8:00 AM43 °FScattered clouds.3 mph76%30.41 "Hg47 mi
7:00 AM36 °FPassing clouds.3 mph89%30.42 "Hg47 mi
6:00 AM40 °FPassing clouds.2 mph75%30.40 "Hg37 mi
5:00 AM42 °FQuite cool.3 mph67%30.40 "HgN/A
4:00 AM43 °FClear.3 mph68%30.39 "Hg37 mi
3:00 AM43 °FClear.3 mph65%30.38 "Hg37 mi
2:00 AM44 °FClear.3 mph66%30.37 "Hg43 mi
1:00 AM46 °FClear.3 mph63%30.37 "Hg43 mi
12:00 AM46 °FClear.3 mph63%30.36 "Hg47 mi
11:00 PM
Mon, Apr 20
48 °FClear.2 mph59%30.34 "Hg47 mi
10:00 PM52 °FPassing clouds.2 mph54%30.32 "Hg47 mi
9:00 PM54 °FPassing clouds.3 mph53%30.30 "Hg47 mi
8:00 PM58 °FPartly sunny.3 mph45%30.27 "Hg47 mi
7:00 PM61 °FOvercast.5 mph39%30.26 "Hg47 mi
6:00 PM62 °FOvercast.6 mph34%30.26 "Hg47 mi
5:00 PM63 °FPartly sunny.5 mph34%30.26 "Hg47 mi
Weather by CustomWeather, © 2015

See weather overviewHow to use our weather pages